Regional Weather Roundup
Issued by NWS Cleveland, OH

Home | Current Version | Previous Version | Text Only | Print | Product List | Glossary Off
Versions: 1 2 3 4 5 6 7 8 9 10 11 12 13 14 15 16 17 18 19 20 21 22 23 24 25 26 27 28 29 30 31 32 33 34 35 36 37 38 39 40 41 42 43 44 45 46 47 48 49 50

000
ASUS41 KCLE 240100
RWRCLE
OHIO REGIONAL WEATHER ROUNDUP
NATIONAL WEATHER SERVICE WILMINGTON, OH
900 PM EDT TUE SEP 23 2014

NOTE: "FAIR" INDICATES FEW OR NO CLOUDS BELOW 12,000 FEET WITH NO
SIGNIFICANT WEATHER AND/OR OBSTRUCTIONS TO VISIBILITY.

OHZ001>008-015>018-024>027-034-035-043-044-240200-
   NORTHWEST OHIO

CITY           SKY/WX    TMP DP  RH WIND       PRES   REMARKS
DEFIANCE       CLEAR    N/A N/A N/A CALM      30.32R
FINDLAY        CLEAR     64  45  49 MISG      30.31S
TOLEDO EXPRESS CLEAR     56  51  84 E3        30.33R
TOLEDO METCALF CLEAR     58  50  75 E6          N/A
LIMA           CLEAR     56  50  80 E3        30.32R
$$

OHZ009>014-019>023-028>033-038-089-240200-
   NORTHEAST OHIO

CITY           SKY/WX    TMP DP  RH WIND       PRES   REMARKS
CLE-HOPKINS    CLEAR     60  50  69 NE8       30.37R
CLE-LAKEFRONT  CLEAR     60  50  69 E6        30.35R
CUY CO. ARPT   CLEAR     55  54  94 CALM      30.37R
LORAIN-ELYRIA  CLEAR     57  50  77 E6        30.36R
ASHTABULA      CLEAR     51  49  92 CALM      30.38R
AKRON-CANTON   CLEAR     59  45  59 E7        30.36R
WOOSTER        NOT AVBL
MANSFIELD      CLEAR     56  47  71 E5        30.35R
YOUNGSTOWN     CLEAR     56  51  84 NE9       30.37R
$$

OHZ042-051>053-060>062-070>072-077>081-240200-
  SOUTHWEST OHIO

CITY           SKY/WX    TMP DP  RH WIND       PRES   REMARKS
CINC-COVINGTON CLEAR     63  44  50 E3        30.29R
CINC-LUNKEN    CLEAR     56  50  80 CALM      30.30R
HAMILTON       CLEAR     53  49  86 CALM      30.30R
DAYTON         NOT AVBL
WRIGHT-PAT AFB CLEAR     61  45  56 CALM      30.31R
DAYTON GENERAL CLEAR     59  46  62 E6        30.30R
WILMINGTON     CLEAR     58  42  55 NE7       30.31R
$$

OHZ036-037-039>041-045>050-054>059-063>069-073>076-082>088-240200-
  CENTRAL AND SOUTHEAST OHIO

CITY           SKY/WX    TMP DP  RH WIND       PRES   REMARKS
COLUMBUS       CLEAR     62  44  51 E5        30.32R
OSU AIRPORT    CLEAR     60  46  59 E5        30.32R
BOLTON FIELD   NOT AVBL
RICKENBACK AFB NOT AVBL
NEWARK         CLEAR     51  46  83 CALM      30.33R
MARION         CLEAR     56  46  69 E5        30.33R
LANCASTER      CLEAR     51  45  79 CALM      30.33R
ZANESVILLE     CLEAR     57  46  66 N3        30.33R
NEW PHILLY     CLEAR     52  48  86 CALM      30.36
$$



USA.gov is the U.S. government's official web portal to all federal, state and local government web resources and services.